Tracking 31027 objects as of 19-Jul-2025
HD Live streaming from Space Station
objects crossing your sky now

SPACEMOBILE-005

Track SPACEMOBILE-005 now!
10-day predictions


NORAD ID: 61046
Int'l Code: 2024-163B
Perigee: 504.8 km
Apogee: 518.7 km
Inclination: 53.0 °
Period: 94.7 minutes
Semi major axis: 6882 km
RCS: Unknown
Launch date: September 12, 2024
Source: United States (US)
Launch site: AIR FORCE EASTERN TEST RANGE (AFETR)
Your satellite tracking list
STARLINK-2062
Track 1 satellite(s)




NASA's NSSDC Master Catalog

Two Line Element Set (TLE):
1 61046U 24163B   25199.83426535  .00003414  00000-0  16920-3 0  9998
2 61046  52.9751  42.4390 0010093 188.4068 171.6759 15.20420279 47030
Source of the keplerian elements: AFSPC